Weather History for NW Arkansas Airport, AR

Change the Weather History Date:

Monday, May 20, 2013

  Actual Average Record
Temperature  
Mean Temperature 68 °F -  
Max Temperature 77 °F - - ()
Min Temperature 60 °F - - ()
Cooling Degree Days 2    
Growing Degree Days 18 (Base 50)    
Moisture  
Dew Point 65 °F    
Average Humidity 90    
Maximum Humidity 100    
Minimum Humidity 73    
Precipitation  
Precipitation 0.43 in - - ()
Sea Level Pressure  
Sea Level Pressure 29.76 in    
Wind  
Wind Speed 11 mph (SSE)    
Max Wind Speed 33 mph    
Max Gust Speed 50 mph    
Visibility 8 miles    
Events Rain , Thunderstorm    
T = Trace of Precipitation, MM = Missing Value Source: NWS Daily Summary

Daily Weather History Graph

Daily Weather History Graph

Search for Another Location

Airport:

Trip Planner

Search our weather history database for the weather conditions in past years. The results will help you decide how hot, cold, wet, or windy it might be!

Date:

Astronomy

May. 20, 2013 Rise Set
Actual Time 6:06 AM CDT 8:21 PM CDT
Civil Twilight 5:37 AM CDT 8:50 PM CDT
Nautical Twilight 5:02 AM CDT 9:25 PM CDT
Astronomical Twilight 4:23 AM CDT 10:04 PM CDT
Moon 3:37 PM CDT 2:53 AM CDT
Length of Visible Light 15h 12m
Length of Day
14h 14m
Waxing Gibbous, 75% of the Moon is Illuminated
May 20
Waxing Gibbous
May 24
Full
May 31
Last Quarter
Jun 8
New
Jun 16
First Quarter

Hourly Weather History & Observations

Time (CDT) Temp. Dew Point Humidity Pressure Visibility Wind Dir Wind Speed Gust Speed Precip Events Conditions
12:53 AM 75.0 °F 66.0 °F 73% 29.71 in 10.0 mi South 15.0 mph 24.2 mph N/A   Clear
1:53 AM 73.9 °F 64.9 °F 73% 29.71 in 10.0 mi South 13.8 mph - N/A   Scattered Clouds
3:53 AM 72.0 °F 64.0 °F 76% 29.70 in 10.0 mi South 13.8 mph - N/A   Clear
4:53 AM 71.1 °F 64.0 °F 78% 29.73 in 10.0 mi South 11.5 mph - N/A   Clear
5:53 AM 69.1 °F 64.0 °F 84% 29.76 in 10.0 mi ENE 4.6 mph - N/A   Mostly Cloudy
6:30 AM 66.2 °F 62.6 °F 88% 29.82 in 10.0 mi NE 9.2 mph - N/A   Overcast
7:06 AM 66.2 °F 60.8 °F 83% 29.82 in 10.0 mi East 4.6 mph - N/A   Overcast
7:53 AM 68.0 °F 64.0 °F 87% 29.79 in 10.0 mi SSE 5.8 mph - N/A   Overcast
8:07 AM 68.0 °F 64.4 °F 88% 29.83 in 10.0 mi SSE 5.8 mph - N/A   Overcast
9:53 AM 70.0 °F 64.9 °F 84% 29.80 in 7.0 mi South 6.9 mph - N/A   Overcast
10:53 AM 70.0 °F 66.0 °F 87% 29.80 in 4.0 mi South 8.1 mph - 0.00 in   Overcast
11:53 AM 70.0 °F 66.0 °F 87% 29.79 in 6.0 mi South 13.8 mph - 0.00 in   Overcast
1:53 PM 73.0 °F 70.0 °F 90% 29.76 in 9.0 mi South 10.4 mph - N/A   Overcast
2:53 PM 75.0 °F 70.0 °F 84% 29.76 in 9.0 mi South 12.7 mph - N/A   Overcast
3:30 PM 75.2 °F 71.6 °F 89% 29.77 in 9.0 mi South 11.5 mph - N/A   Overcast
3:53 PM 75.9 °F 71.1 °F 85% 29.71 in 10.0 mi South 11.5 mph - N/A   Overcast
4:53 PM 75.0 °F 71.1 °F 87% 29.70 in 9.0 mi South 9.2 mph - N/A   Overcast
5:53 PM 73.9 °F 72.0 °F 93% 29.71 in 6.0 mi South 9.2 mph - 0.00 in Rain Light Rain
6:53 PM 73.9 °F 71.1 °F 91% 29.70 in 8.0 mi SSW 6.9 mph - 0.00 in   Mostly Cloudy
7:09 PM 69.8 °F 68.0 °F 94% 29.83 in 1.5 mi West 33.4 mph 49.5 mph 0.21 in Rain Heavy Rain
7:15 PM 62.6 °F 62.6 °F 100% 29.76 in 0.8 mi NNW 12.7 mph 49.5 mph 0.40 in Rain Heavy Rain
7:19 PM 60.8 °F 60.8 °F 100% 29.74 in 1.0 mi NNE 5.8 mph 36.8 mph 0.42 in Rain Rain
7:23 PM 62.6 °F 60.8 °F 94% 29.74 in 4.0 mi North 8.1 mph - 0.42 in Rain Light Rain
7:49 PM 60.8 °F 60.8 °F 100% 29.75 in 10.0 mi SSE 8.1 mph 26.5 mph 0.42 in   Mostly Cloudy
7:53 PM 61.0 °F 61.0 °F 100% 29.72 in 10.0 mi SSE 8.1 mph - 0.42 in   Scattered Clouds
8:48 PM 60.8 °F 60.8 °F 100% 29.81 in 10.0 mi Calm Calm - N/A   Clear
9:53 PM 61.0 °F 61.0 °F 100% 29.75 in 10.0 mi East 4.6 mph - N/A   Clear
10:35 PM 60.8 °F 60.8 °F 100% 29.82 in 10.0 mi NNE 9.2 mph - 0.00 in Rain , Thunderstorm Light Rain
10:53 PM 62.1 °F 62.1 °F 100% 29.75 in 10.0 mi East 8.1 mph - 0.01 in Rain , Thunderstorm Light Rain
11:01 PM 62.6 °F 62.6 °F 100% 29.76 in 10.0 mi NNE 8.1 mph - 0.00 in   Scattered Clouds
11:53 PM 64.0 °F 62.1 °F 93% 29.79 in 10.0 mi SSE 6.9 mph - 0.00 in   Mostly Cloudy